Cicia Airport


Codes: NFCI/ICI
Name: Cicia Airport
City: Cicia
Country: Fiji
Elevation: 13 ft.
Wikipedia:

Photos at Cicia Airport


   Photos courtesy of SpottingLog. You can add your own sightings and photos by signing up for a free trial today.



No photos found.

Weather at Cicia Airport


Time (UTC)DescriptionTempratureWindCloud coverageVisibilityPressureHumidity
25-Jun-2024 15:00Scattered Clouds25°C16 mph, E39%10000m1016hPa74%
25-Jun-2024 18:00Scattered Clouds25°C16 mph, E35%10000m1016hPa73%
25-Jun-2024 21:00Few Clouds25°C16 mph, E20%10000m1017hPa72%
26-Jun-2024 00:00Clear Sky25°C13 mph, E10%10000m1017hPa72%
26-Jun-2024 03:00Clear Sky25°C13 mph, SE5%10000m1014hPa73%
26-Jun-2024 06:00Clear Sky25°C13 mph, SE5%10000m1015hPa76%
26-Jun-2024 09:00Light Rain25°C13 mph, SE14%10000m1017hPa77%
26-Jun-2024 12:00Light Rain25°C16 mph, SE56%10000m1016hPa75%
26-Jun-2024 15:00Light Rain25°C16 mph, SE66%10000m1015hPa74%
26-Jun-2024 18:00Scattered Clouds25°C11 mph, SE34%10000m1015hPa75%
26-Jun-2024 21:00Light Rain25°C13 mph, E5%10000m1017hPa76%
27-Jun-2024 00:00Light Rain26°C13 mph, E19%10000m1016hPa74%
27-Jun-2024 03:00Light Rain26°C13 mph, SE11%10000m1014hPa75%
27-Jun-2024 06:00Light Rain26°C16 mph, E43%10000m1014hPa75%
27-Jun-2024 09:00Light Rain26°C18 mph, E40%10000m1016hPa74%
27-Jun-2024 12:00Scattered Clouds25°C16 mph, E26%10000m1016hPa74%
27-Jun-2024 15:00Clear Sky25°C16 mph, E8%10000m1014hPa74%
27-Jun-2024 18:00Few Clouds25°C16 mph, SE12%10000m1015hPa77%
27-Jun-2024 21:00Clear Sky25°C16 mph, SE5%10000m1017hPa77%
28-Jun-2024 00:00Clear Sky25°C16 mph, SE3%10000m1016hPa78%
28-Jun-2024 03:00Clear Sky25°C16 mph, E2%10000m1014hPa80%
28-Jun-2024 06:00Clear Sky25°C16 mph, E8%10000m1015hPa81%
28-Jun-2024 09:00Few Clouds25°C13 mph, E15%10000m1016hPa82%
28-Jun-2024 12:00Few Clouds25°C13 mph, E15%10000m1015hPa82%
28-Jun-2024 15:00Clear Sky25°C11 mph, E9%10000m1014hPa83%
28-Jun-2024 18:00Clear Sky25°C11 mph, E10%10000m1015hPa83%
28-Jun-2024 21:00Light Rain26°C11 mph, E9%10000m1016hPa83%
29-Jun-2024 00:00Light Rain25°C9 mph, E7%10000m1015hPa84%
29-Jun-2024 03:00Light Rain26°C7 mph, SE5%10000m1013hPa81%
29-Jun-2024 06:00Light Rain25°C9 mph, SE5%10000m1014hPa81%
29-Jun-2024 09:00Light Rain26°C13 mph, SE18%10000m1015hPa81%
29-Jun-2024 12:00Light Rain25°C11 mph, SE53%10000m1015hPa83%
29-Jun-2024 15:00Light Rain25°C11 mph, SE65%10000m1013hPa81%
29-Jun-2024 18:00Light Rain25°C13 mph, S47%10000m1014hPa82%
29-Jun-2024 21:00Light Rain25°C18 mph, SE4%10000m1016hPa83%
30-Jun-2024 00:00Light Rain25°C22 mph, SE7%10000m1015hPa81%
30-Jun-2024 03:00Light Rain25°C25 mph, SE68%10000m1013hPa82%
30-Jun-2024 06:00Light Rain25°C25 mph, SE82%10000m1014hPa80%
30-Jun-2024 09:00Light Rain25°C25 mph, SE100%10000m1016hPa79%
30-Jun-2024 12:00Light Rain25°C25 mph, SE97%10000m1015hPa78%